"read_dt","SO2 (ppb)","flags","PMT voltage (V)","lamp voltage (V)","lamp intensity (Hz)","internal temp (C)","react chamber temp (C)","sample flow (l/min)","pres (mmHg)","SO2 bkg (ppb)","SO2 coefficient"
2016-05-26 00:00:00,2015E-3,5C000400,-0724,0831,12014,024.3,045.3,0.262,758.1,01.16,0.508
2016-05-26 00:01:00,1961E-3,5C000400,-0724,0832,12283,024.3,045.3,0.261,758.1,01.16,0.508
2016-05-26 00:02:00,1961E-3,5C000400,-0724,0831,12345,024.3,045.3,0.262,758.1,01.16,0.508
2016-05-26 00:03:00,1979E-3,5C000400,-0724,0831,12178,024.3,045.3,0.261,758.1,01.16,0.508
2016-05-26 00:04:00,2079E-3,5C000400,-0724,0831,12186,024.2,045.3,0.261,758.1,01.16,0.508
2016-05-26 00:05:00,1990E-3,5C000400,-0724,0832,12274,024.3,045.3,0.261,758.1,01.16,0.508
2016-05-26 00:06:00,1978E-3,5C000400,-0724,0832,12298,024.3,045.3,0.261,758.1,01.16,0.508
2016-05-26 00:07:00,1949E-3,5C000400,-0724,0832,12074,024.3,045.3,0.261,758.1,01.16,0.508
2016-05-26 00:08:00,1792E-3,5C000400,-0724,0832,12191,024.2,045.3,0.261,758.1,01.16,0.508
2016-05-26 00:09:00,1956E-3,5C000400,-0724,0831,12232,024.3,045.3,0.261,758.1,01.16,0.508
2016-05-26 00:10:00,1932E-3,5C000400,-0724,0832,12170,024.3,045.3,0.261,758.1,01.16,0.508
2016-05-26 00:11:00,2087E-3,5C000400,-0724,0831,12137,024.3,045.3,0.261,758.1,01.16,0.508
2016-05-26 00:12:00,1991E-3,5C000400,-0724,0832,12040,024.3,045.3,0.261,758.1,01.16,0.508
2016-05-26 00:13:00,2045E-3,5C000400,-0724,0831,12078,024.3,045.3,0.262,758.2,01.16,0.508
2016-05-26 00:14:00,1938E-3,5C000400,-0724,0832,12188,024.3,045.3,0.261,758.1,01.16,0.508
2016-05-26 00:15:00,1950E-3,5C000400,-0724,0831,12144,024.3,045.3,0.262,758.1,01.16,0.508
2016-05-26 00:16:00,1911E-3,5C000400,-0724,0832,12235,024.3,045.3,0.261,758.1,01.16,0.508
2016-05-26 00:17:00,1943E-3,5C000400,-0724,0832,12222,024.3,045.3,0.262,758.1,01.16,0.508
2016-05-26 00:18:00,2072E-3,5C000400,-0724,0831,12108,024.3,045.3,0.261,758.2,01.16,0.508
2016-05-26 00:19:00,2059E-3,5C000400,-0724,0831,12165,024.3,045.3,0.261,758.1,01.16,0.508
2016-05-26 00:20:00,1999E-3,5C000400,-0724,0832,12158,024.3,045.3,0.261,758.1,01.16,0.508
2016-05-26 00:21:00,2098E-3,5C000400,-0724,0831,12118,024.3,045.3,0.261,758.1,01.16,0.508
2016-05-26 00:22:00,1918E-3,5C000400,-0724,0832,12137,024.3,045.3,0.261,758.1,01.16,0.508
2016-05-26 00:23:00,1990E-3,5C000400,-0724,0831,12183,024.3,045.3,0.261,758.2,01.16,0.508
2016-05-26 00:24:00,2026E-3,5C000400,-0724,0831,12232,024.3,045.3,0.261,758.1,01.16,0.508
2016-05-26 00:25:00,1980E-3,5C000400,-0724,0832,12168,024.3,045.3,0.261,758.2,01.16,0.508
2016-05-26 00:26:00,2000E-3,5C000400,-0724,0831,12130,024.3,045.3,0.261,758.2,01.16,0.508
2016-05-26 00:27:00,2046E-3,5C000400,-0724,0831,12160,024.3,045.3,0.261,758.2,01.16,0.508
2016-05-26 00:28:00,2170E-3,5C000400,-0724,0832,12243,024.3,045.3,0.261,758.2,01.16,0.508
2016-05-26 00:29:00,1961E-3,5C000400,-0724,0832,12228,024.3,045.3,0.262,758.2,01.16,0.508
2016-05-26 00:30:00,1978E-3,5C000400,-0724,0833,12173,024.3,045.3,0.261,758.2,01.16,0.508
2016-05-26 00:31:00,1958E-3,5C000400,-0724,0831,12198,024.3,045.3,0.262,758.2,01.16,0.508
2016-05-26 00:32:00,1966E-3,5C000400,-0724,0831,12339,024.3,045.3,0.261,758.2,01.16,0.508
2016-05-26 00:33:00,1891E-3,5C000400,-0724,0832,12204,024.3,045.3,0.261,758.2,01.16,0.508
2016-05-26 00:34:00,1878E-3,5C000400,-0724,0833,12237,024.3,045.3,0.261,758.1,01.16,0.508
2016-05-26 00:35:00,2042E-3,5C000400,-0724,0831,12234,024.3,045.3,0.262,758.1,01.16,0.508
2016-05-26 00:36:00,1976E-3,5C000400,-0724,0831,12115,024.3,045.3,0.261,758.1,01.16,0.508
2016-05-26 00:37:00,1899E-3,5C000400,-0724,0831,12323,024.4,045.3,0.262,758.2,01.16,0.508
2016-05-26 00:38:00,1959E-3,5C000400,-0724,0831,12111,024.3,045.3,0.261,758.2,01.16,0.508
2016-05-26 00:39:00,1982E-3,5C000400,-0724,0832,12097,024.3,045.3,0.261,758.2,01.16,0.508
2016-05-26 00:40:00,2027E-3,5C000400,-0724,0832,12290,024.3,045.3,0.261,758.2,01.16,0.508
2016-05-26 00:41:00,1941E-3,5C000400,-0724,0831,12198,024.3,045.3,0.261,758.2,01.16,0.508
2016-05-26 00:42:00,1908E-3,5C000400,-0724,0832,12228,024.3,045.3,0.261,758.2,01.16,0.508
2016-05-26 00:43:00,2090E-3,5C000400,-0724,0831,12194,024.3,045.3,0.261,758.2,01.16,0.508
2016-05-26 00:44:00,2116E-3,5C000400,-0724,0832,12106,024.3,045.3,0.261,758.2,01.16,0.508
2016-05-26 00:45:00,1979E-3,5C000400,-0724,0833,12227,024.4,045.3,0.261,758.2,01.16,0.508
2016-05-26 00:46:00,2126E-3,5C000400,-0724,0832,12180,024.3,045.3,0.261,758.2,01.16,0.508
2016-05-26 00:47:00,2006E-3,5C000400,-0724,0832,12125,024.4,045.3,0.261,758.2,01.16,0.508
2016-05-26 00:48:00,1998E-3,5C000400,-0724,0832,12218,024.4,045.3,0.261,758.2,01.16,0.508
2016-05-26 00:49:00,1984E-3,5C000400,-0724,0832,12326,024.4,045.3,0.261,758.3,01.16,0.508
2016-05-26 00:50:00,2042E-3,5C000400,-0724,0832,12161,024.3,045.3,0.261,758.2,01.16,0.508
2016-05-26 00:51:00,2056E-3,5C000400,-0724,0831,12334,024.4,045.3,0.261,758.2,01.16,0.508
2016-05-26 00:52:00,2058E-3,5C000400,-0724,0832,12225,024.4,045.3,0.261,758.2,01.16,0.508
2016-05-26 00:53:00,1913E-3,5C000400,-0724,0832,12223,024.4,045.3,0.261,758.2,01.16,0.508
2016-05-26 00:54:00,1990E-3,5C000400,-0724,0831,12152,024.4,045.3,0.261,758.2,01.16,0.508
2016-05-26 00:55:00,1955E-3,5C000400,-0724,0832,12019,024.4,045.3,0.261,758.2,01.16,0.508
2016-05-26 00:56:00,2076E-3,5C000400,-0724,0831,12186,024.4,045.3,0.261,758.2,01.16,0.508
2016-05-26 00:57:00,2160E-3,5C000400,-0724,0831,12235,024.4,045.3,0.261,758.2,01.16,0.508
2016-05-26 00:58:00,1983E-3,5C000400,-0724,0832,12192,024.4,045.3,0.261,758.3,01.16,0.508
2016-05-26 00:59:00,1960E-3,5C000400,-0724,0831,12183,024.4,045.3,0.261,758.2,01.16,0.508
2016-05-26 01:00:00,2086E-3,5C000400,-0724,0831,12219,024.4,045.3,0.261,758.2,01.16,0.508
2016-05-26 01:01:00,1968E-3,5C000400,-0724,0831,12267,024.4,045.3,0.261,758.2,01.16,0.508
2016-05-26 01:02:00,1944E-3,5C000400,-0724,0832,12043,024.4,045.3,0.261,758.2,01.16,0.508
2016-05-26 01:03:00,1855E-3,5C000400,-0724,0831,12229,024.4,045.3,0.261,758.2,01.16,0.508
2016-05-26 01:04:00,1900E-3,5C000400,-0724,0831,12187,024.4,045.3,0.261,758.2,01.16,0.508
2016-05-26 01:05:00,2010E-3,5C000400,-0724,0832,12191,024.4,045.3,0.261,758.2,01.16,0.508
2016-05-26 01:06:00,1936E-3,5C000400,-0724,0831,12118,024.4,045.3,0.261,758.2,01.16,0.508
2016-05-26 01:07:00,1998E-3,5C000400,-0724,0832,12228,024.4,045.3,0.261,758.3,01.16,0.508
2016-05-26 01:08:00,1970E-3,5C000400,-0724,0831,12273,024.4,045.3,0.261,758.3,01.16,0.508
2016-05-26 01:09:00,2040E-3,5C000400,-0724,0831,12115,024.4,045.3,0.261,758.2,01.16,0.508
2016-05-26 01:10:00,2116E-3,5C000400,-0724,0831,12069,024.4,045.3,0.261,758.2,01.16,0.508
2016-05-26 01:11:00,1981E-3,5C000400,-0724,0832,12067,024.4,045.3,0.261,758.3,01.16,0.508
2016-05-26 01:12:00,1987E-3,5C000400,-0724,0832,12076,024.4,045.3,0.261,758.3,01.16,0.508
2016-05-26 01:13:00,1986E-3,5C000400,-0724,0832,12036,024.5,045.3,0.261,758.3,01.16,0.508
2016-05-26 01:14:00,1978E-3,5C000400,-0724,0832,12234,024.4,045.3,0.261,758.3,01.16,0.508
2016-05-26 01:15:00,2079E-3,5C000400,-0724,0831,12171,024.4,045.3,0.261,758.3,01.16,0.508
2016-05-26 01:16:00,2107E-3,5C000400,-0724,0833,12155,024.4,045.4,0.261,758.3,01.16,0.508
2016-05-26 01:17:00,1887E-3,5C000400,-0724,0832,12149,024.5,045.3,0.261,758.3,01.16,0.508
2016-05-26 01:18:00,1949E-3,5C000400,-0724,0832,12094,024.4,045.3,0.261,758.3,01.16,0.508
2016-05-26 01:19:00,2094E-3,5C000400,-0724,0832,12229,024.5,045.3,0.261,758.3,01.16,0.508
2016-05-26 01:20:00,1840E-3,5C000400,-0724,0833,12133,024.5,045.3,0.261,758.3,01.16,0.508
2016-05-26 01:21:00,2011E-3,5C000400,-0724,0832,12228,024.5,045.3,0.261,758.3,01.16,0.508
2016-05-26 01:22:00,2084E-3,5C000400,-0724,0832,12093,024.5,045.3,0.261,758.3,01.16,0.508
2016-05-26 01:23:00,2106E-3,5C000400,-0724,0832,12210,024.5,045.3,0.261,758.3,01.16,0.508
2016-05-26 01:24:00,1990E-3,5C000400,-0724,0831,12198,024.5,045.3,0.261,758.4,01.16,0.508
2016-05-26 01:25:00,2057E-3,5C000400,-0724,0831,12210,024.5,045.3,0.261,758.3,01.16,0.508
2016-05-26 01:26:00,1996E-3,5C000400,-0724,0832,12130,024.5,045.3,0.261,758.4,01.16,0.508
2016-05-26 01:27:00,1916E-3,5C000400,-0724,0832,12084,024.5,045.3,0.261,758.4,01.16,0.508
2016-05-26 01:28:00,1991E-3,5C000400,-0724,0831,12289,024.5,045.3,0.261,758.4,01.16,0.508
2016-05-26 01:29:00,1923E-3,5C000400,-0724,0830,12124,024.5,045.3,0.261,758.4,01.16,0.508
2016-05-26 01:30:00,2078E-3,5C000400,-0724,0832,12369,024.5,045.3,0.261,758.4,01.16,0.508
2016-05-26 01:31:00,2033E-3,5C000400,-0724,0832,12144,024.5,045.3,0.261,758.4,01.16,0.508
2016-05-26 01:32:00,2000E-3,5C000400,-0724,0832,12180,024.5,045.3,0.261,758.4,01.16,0.508
2016-05-26 01:33:00,2127E-3,5C000400,-0724,0831,12246,024.5,045.3,0.261,758.4,01.16,0.508
2016-05-26 01:34:00,1948E-3,5C000400,-0724,0832,12108,024.5,045.3,0.261,758.3,01.16,0.508
2016-05-26 01:35:00,1908E-3,5C000400,-0724,0831,12295,024.6,045.4,0.262,758.3,01.16,0.508
2016-05-26 01:36:00,2098E-3,5C000400,-0724,0831,12210,024.5,045.3,0.261,758.3,01.16,0.508
2016-05-26 01:37:00,2048E-3,5C000400,-0724,0831,12219,024.5,045.3,0.261,758.4,01.16,0.508
2016-05-26 01:38:00,2079E-3,5C000400,-0724,0832,12056,024.5,045.3,0.261,758.4,01.16,0.508
2016-05-26 01:39:00,1867E-3,5C000400,-0724,0831,12241,024.5,045.3,0.261,758.4,01.16,0.508
2016-05-26 01:40:00,1999E-3,5C000400,-0724,0832,12216,024.6,045.3,0.261,758.4,01.16,0.508
2016-05-26 01:41:00,2021E-3,5C000400,-0724,0831,12164,024.5,045.3,0.261,758.4,01.16,0.508
2016-05-26 01:42:00,2041E-3,5C000400,-0724,0832,12252,024.5,045.3,0.261,758.4,01.16,0.508
2016-05-26 01:43:00,2128E-3,5C000400,-0724,0831,12219,024.6,045.3,0.261,758.4,01.16,0.508
2016-05-26 01:44:00,2070E-3,5C000400,-0724,0831,12201,024.6,045.3,0.261,758.4,01.16,0.508
2016-05-26 01:45:00,1913E-3,5C000400,-0724,0832,12043,024.5,045.3,0.260,758.4,01.16,0.508
2016-05-26 01:46:00,2043E-3,5C000400,-0724,0831,12300,024.6,045.4,0.261,758.4,01.16,0.508
2016-05-26 01:47:00,2106E-3,5C000400,-0724,0832,12125,024.6,045.3,0.260,758.4,01.16,0.508
2016-05-26 01:48:00,2086E-3,5C000400,-0724,0831,12216,024.6,045.3,0.261,758.4,01.16,0.508
2016-05-26 01:49:00,1932E-3,5C000400,-0724,0832,12192,024.6,045.3,0.261,758.5,01.16,0.508
2016-05-26 01:50:00,1954E-3,5C000400,-0724,0832,12245,024.6,045.3,0.261,758.4,01.16,0.508
2016-05-26 01:51:00,2171E-3,5C000400,-0724,0831,12122,024.6,045.3,0.261,758.4,01.16,0.508
2016-05-26 01:52:00,1925E-3,5C000400,-0724,0832,12106,024.6,045.3,0.261,758.4,01.16,0.508
2016-05-26 01:53:00,2077E-3,5C000400,-0724,0831,12210,024.6,045.3,0.261,758.4,01.16,0.508
2016-05-26 01:54:00,1923E-3,5C000400,-0724,0832,12089,024.6,045.3,0.261,758.5,01.16,0.508
2016-05-26 01:55:00,1992E-3,5C000400,-0724,0831,11950,024.6,045.3,0.261,758.4,01.16,0.508
2016-05-26 01:56:00,1988E-3,5C000400,-0724,0832,12216,024.6,045.3,0.260,758.5,01.16,0.508
2016-05-26 01:57:00,1957E-3,5C000400,-0724,0832,12185,024.6,045.3,0.261,758.5,01.16,0.508
2016-05-26 01:58:00,2019E-3,5C000400,-0724,0833,12230,024.6,045.3,0.261,758.5,01.16,0.508
2016-05-26 01:59:00,2052E-3,5C000400,-0724,0832,12121,024.6,045.3,0.261,758.5,01.16,0.508
2016-05-26 02:00:00,1954E-3,5C000400,-0724,0832,12175,024.6,045.3,0.261,758.4,01.16,0.508
2016-05-26 02:01:00,2008E-3,5C000400,-0724,0831,12137,024.6,045.3,0.260,758.4,01.16,0.508
2016-05-26 02:02:00,1904E-3,5C000400,-0724,0831,12095,024.7,045.3,0.261,758.4,01.16,0.508
2016-05-26 02:03:00,2003E-3,5C000400,-0724,0831,12235,024.6,045.3,0.260,758.4,01.16,0.508
2016-05-26 02:04:00,2006E-3,5C000400,-0724,0831,12219,024.6,045.3,0.261,758.4,01.16,0.508
2016-05-26 02:05:00,1968E-3,5C000400,-0724,0831,12068,024.6,045.3,0.261,758.4,01.16,0.508
2016-05-26 02:06:00,2165E-3,5C000400,-0724,0832,12085,024.7,045.3,0.260,758.5,01.16,0.508
2016-05-26 02:07:00,1912E-3,5C000400,-0724,0832,12087,024.7,045.3,0.261,758.5,01.16,0.508
2016-05-26 02:08:00,2080E-3,5C000400,-0724,0832,12288,024.7,045.3,0.261,758.5,01.16,0.508
2016-05-26 02:09:00,2100E-3,5C000400,-0724,0832,12201,024.7,045.3,0.261,758.5,01.16,0.508
2016-05-26 02:10:00,1939E-3,5C000400,-0724,0832,11974,024.7,045.3,0.261,758.5,01.16,0.508
2016-05-26 02:11:00,2039E-3,5C000400,-0724,0832,12146,024.7,045.3,0.260,758.5,01.16,0.508
2016-05-26 02:12:00,1983E-3,5C000400,-0724,0831,12236,024.7,045.3,0.261,758.5,01.16,0.508
2016-05-26 02:13:00,2064E-3,5C000400,-0724,0832,12075,024.7,045.3,0.260,758.5,01.16,0.508
2016-05-26 02:14:00,1913E-3,5C000400,-0724,0831,12248,024.7,045.3,0.261,758.5,01.16,0.508
2016-05-26 02:15:00,1918E-3,5C000400,-0724,0832,12047,024.7,045.3,0.260,758.5,01.16,0.508
2016-05-26 02:16:00,1903E-3,5C000400,-0724,0832,11994,024.7,045.3,0.261,758.5,01.16,0.508
2016-05-26 02:17:00,1956E-3,5C000400,-0724,0831,12097,024.7,045.3,0.260,758.5,01.16,0.508
2016-05-26 02:18:00,1925E-3,5C000400,-0724,0832,12179,024.7,045.3,0.261,758.5,01.16,0.508
2016-05-26 02:19:00,1919E-3,5C000400,-0724,0832,12040,024.7,045.3,0.260,758.6,01.16,0.508
2016-05-26 02:20:00,1971E-3,5C000400,-0724,0831,12179,024.7,045.3,0.261,758.6,01.16,0.508
2016-05-26 02:21:00,1908E-3,5C000400,-0724,0831,12303,024.7,045.3,0.260,758.6,01.16,0.508
2016-05-26 02:22:00,2039E-3,5C000400,-0724,0831,12243,024.7,045.3,0.261,758.5,01.16,0.508
2016-05-26 02:23:00,2028E-3,5C000400,-0724,0831,12192,024.7,045.3,0.260,758.6,01.16,0.508
2016-05-26 02:24:00,1931E-3,5C000400,-0724,0832,12018,024.8,045.3,0.261,758.6,01.16,0.508
2016-05-26 02:25:00,1959E-3,5C000400,-0724,0832,12223,024.8,045.3,0.260,758.5,01.16,0.508
2016-05-26 02:26:00,1899E-3,5C000400,-0724,0832,12187,024.8,045.3,0.261,758.5,01.16,0.508
2016-05-26 02:27:00,2074E-3,5C000400,-0724,0832,12150,024.8,045.4,0.260,758.5,01.16,0.508
2016-05-26 02:28:00,2147E-3,5C000400,-0724,0831,12140,024.8,045.3,0.261,758.5,01.16,0.508
2016-05-26 02:29:00,1891E-3,5C000400,-0724,0832,12191,024.8,045.3,0.260,758.5,01.16,0.508
2016-05-26 02:30:00,2072E-3,5C000400,-0724,0832,12106,024.8,045.3,0.261,758.5,01.16,0.508
2016-05-26 02:31:00,1916E-3,5C000400,-0724,0832,12219,024.8,045.4,0.260,758.5,01.16,0.508
2016-05-26 02:32:00,2002E-3,5C000400,-0724,0831,12135,024.8,045.3,0.261,758.5,01.16,0.508
2016-05-26 02:33:00,1948E-3,5C000400,-0724,0831,12260,024.8,045.4,0.260,758.5,01.16,0.508
2016-05-26 02:34:00,2025E-3,5C000400,-0724,0831,12223,024.8,045.3,0.261,758.5,01.16,0.508
2016-05-26 02:35:00,1926E-3,5C000400,-0724,0831,12114,024.8,045.3,0.260,758.5,01.16,0.508
2016-05-26 02:36:00,2007E-3,5C000400,-0724,0832,12073,024.8,045.3,0.261,758.5,01.16,0.508
2016-05-26 02:37:00,1969E-3,5C000400,-0724,0831,12265,024.8,045.3,0.260,758.5,01.16,0.508
2016-05-26 02:38:00,2132E-3,5C000400,-0724,0832,12143,024.8,045.3,0.261,758.5,01.16,0.508
2016-05-26 02:39:00,2004E-3,5C000400,-0724,0832,12006,024.8,045.3,0.260,758.5,01.16,0.508
2016-05-26 02:40:00,1979E-3,5C000400,-0724,0831,12209,024.8,045.3,0.260,758.5,01.16,0.508
2016-05-26 02:41:00,1935E-3,5C000400,-0724,0831,12135,024.8,045.3,0.260,758.5,01.16,0.508
2016-05-26 02:42:00,2079E-3,5C000400,-0724,0831,12155,024.8,045.4,0.260,758.5,01.16,0.508
2016-05-26 02:43:00,1960E-3,5C000400,-0724,0832,12118,024.8,045.3,0.261,758.6,01.16,0.508
2016-05-26 02:44:00,1939E-3,5C000400,-0724,0832,12188,024.8,045.3,0.260,758.5,01.16,0.508
2016-05-26 02:45:00,1968E-3,5C000400,-0724,0832,12263,024.8,045.3,0.260,758.5,01.16,0.508
2016-05-26 02:46:00,2148E-3,5C000400,-0724,0832,12254,024.9,045.3,0.260,758.5,01.16,0.508
2016-05-26 02:47:00,1854E-3,5C000400,-0724,0831,12248,024.8,045.3,0.260,758.6,01.16,0.508
2016-05-26 02:48:00,2094E-3,5C000400,-0724,0832,12073,024.9,045.4,0.261,758.6,01.16,0.508
2016-05-26 02:49:00,1938E-3,5C000400,-0724,0832,12037,024.9,045.3,0.260,758.5,01.16,0.508
2016-05-26 02:50:00,2025E-3,5C000400,-0724,0831,12060,024.9,045.3,0.260,758.6,01.16,0.508
2016-05-26 02:51:00,2134E-3,5C000400,-0724,0831,12284,024.9,045.3,0.260,758.6,01.16,0.508
2016-05-26 02:52:00,2006E-3,5C000400,-0724,0832,12149,024.9,045.3,0.260,758.6,01.16,0.508
2016-05-26 02:53:00,2044E-3,5C000400,-0724,0831,12182,024.9,045.3,0.260,758.6,01.16,0.508
2016-05-26 02:54:00,1962E-3,5C000400,-0724,0832,12197,024.9,045.4,0.260,758.6,01.16,0.508
2016-05-26 02:55:00,2020E-3,5C000400,-0724,0832,12133,024.9,045.3,0.260,758.6,01.16,0.508
2016-05-26 02:56:00,2051E-3,5C000400,-0724,0831,12120,024.9,045.4,0.260,758.6,01.16,0.508
2016-05-26 02:57:00,1962E-3,5C000400,-0724,0833,12190,024.9,045.3,0.261,758.6,01.16,0.508
2016-05-26 02:58:00,1905E-3,5C000400,-0724,0832,12234,024.9,045.3,0.260,758.6,01.16,0.508
2016-05-26 02:59:00,2115E-3,5C000400,-0724,0832,12300,024.9,045.3,0.260,758.6,01.16,0.508
2016-05-26 03:00:00,1998E-3,5C000400,-0724,0832,12209,024.9,045.3,0.260,758.6,01.16,0.508
2016-05-26 03:01:00,1914E-3,5C000400,-0724,0832,12230,024.9,045.3,0.260,758.6,01.16,0.508
2016-05-26 03:02:00,1929E-3,5C000400,-0724,0831,12196,024.9,045.3,0.260,758.6,01.16,0.508
2016-05-26 03:03:00,1930E-3,5C000400,-0724,0832,12139,024.9,045.3,0.260,758.6,01.16,0.508
2016-05-26 03:04:00,2001E-3,5C000400,-0724,0832,12032,025.0,045.3,0.260,758.6,01.16,0.508
2016-05-26 03:05:00,2043E-3,5C000400,-0724,0831,12104,025.0,045.3,0.260,758.6,01.16,0.508
2016-05-26 03:06:00,1964E-3,5C000400,-0724,0831,12241,024.9,045.3,0.260,758.6,01.16,0.508
2016-05-26 03:07:00,2026E-3,5C000400,-0724,0832,12023,025.0,045.3,0.260,758.6,01.16,0.508
2016-05-26 03:08:00,1994E-3,5C000400,-0724,0831,12199,024.9,045.3,0.260,758.6,01.16,0.508
2016-05-26 03:09:00,1971E-3,5C000400,-0724,0831,12266,025.0,045.3,0.260,758.6,01.16,0.508
2016-05-26 03:10:00,2030E-3,5C000400,-0724,0832,12166,025.0,045.4,0.260,758.6,01.16,0.508
2016-05-26 03:11:00,1918E-3,5C000400,-0724,0831,12161,024.9,045.3,0.260,758.6,01.16,0.508
2016-05-26 03:12:00,1974E-3,5C000400,-0724,0832,11998,025.0,045.3,0.260,758.6,01.16,0.508
2016-05-26 03:13:00,2036E-3,5C000400,-0724,0831,12363,025.0,045.3,0.260,758.6,01.16,0.508
2016-05-26 03:14:00,1960E-3,5C000400,-0724,0831,12122,025.0,045.3,0.260,758.6,01.16,0.508
2016-05-26 03:15:00,2096E-3,5C000400,-0724,0831,12126,025.0,045.3,0.260,758.6,01.16,0.508
2016-05-26 03:16:00,2018E-3,5C000400,-0724,0831,12117,025.0,045.3,0.260,758.6,01.16,0.508
2016-05-26 03:17:00,1895E-3,5C000400,-0724,0831,12269,025.0,045.3,0.260,758.6,01.16,0.508
2016-05-26 03:18:00,2067E-3,5C000400,-0724,0832,12165,025.0,045.3,0.260,758.6,01.16,0.508
2016-05-26 03:19:00,2057E-3,5C000400,-0724,0832,12188,025.0,045.3,0.260,758.6,01.16,0.508
2016-05-26 03:20:00,1916E-3,5C000400,-0724,0831,12337,025.0,045.3,0.260,758.6,01.16,0.508
2016-05-26 03:21:00,1888E-3,5C000400,-0724,0832,12109,025.0,045.3,0.260,758.6,01.16,0.508
2016-05-26 03:22:00,2148E-3,5C000400,-0724,0832,12271,025.0,045.3,0.260,758.6,01.16,0.508
2016-05-26 03:23:00,2023E-3,5C000400,-0724,0832,12159,025.0,045.4,0.260,758.6,01.16,0.508
2016-05-26 03:24:00,1994E-3,5C000400,-0724,0832,12151,025.0,045.4,0.260,758.6,01.16,0.508
2016-05-26 03:25:00,1932E-3,5C000400,-0724,0832,12201,025.0,045.3,0.260,758.6,01.16,0.508
2016-05-26 03:26:00,2015E-3,5C000400,-0724,0832,12224,025.0,045.3,0.260,758.6,01.16,0.508
2016-05-26 03:27:00,2008E-3,5C000400,-0724,0833,12257,025.0,045.3,0.260,758.6,01.16,0.508
2016-05-26 03:28:00,1839E-3,5C000400,-0724,0832,12064,025.0,045.3,0.260,758.6,01.16,0.508
2016-05-26 03:29:00,1903E-3,5C000400,-0724,0832,12185,025.1,045.4,0.260,758.6,01.16,0.508
2016-05-26 03:30:00,2011E-3,5C000400,-0724,0832,12071,025.1,045.4,0.260,758.6,01.16,0.508
2016-05-26 03:31:00,1972E-3,5C000400,-0724,0831,12142,025.1,045.3,0.260,758.6,01.16,0.508
2016-05-26 03:32:00,2047E-3,5C000400,-0724,0832,12282,025.1,045.4,0.260,758.6,01.16,0.508
2016-05-26 03:33:00,1912E-3,5C000400,-0724,0831,12041,025.1,045.4,0.260,758.6,01.16,0.508
2016-05-26 03:34:00,1972E-3,5C000400,-0724,0832,12100,025.1,045.4,0.260,758.5,01.16,0.508
2016-05-26 03:35:00,2097E-3,5C000400,-0724,0832,12118,025.1,045.3,0.260,758.5,01.16,0.508
2016-05-26 03:36:00,2073E-3,5C000400,-0724,0832,12121,025.1,045.3,0.260,758.5,01.16,0.508
2016-05-26 03:37:00,1941E-3,5C000400,-0724,0832,12130,025.1,045.4,0.260,758.6,01.16,0.508
2016-05-26 03:38:00,2028E-3,5C000400,-0724,0832,12196,025.1,045.3,0.260,758.5,01.16,0.508
2016-05-26 03:39:00,2055E-3,5C000400,-0724,0832,12266,025.1,045.3,0.260,758.5,01.16,0.508
2016-05-26 03:40:00,2007E-3,5C000400,-0724,0832,12113,025.1,045.3,0.260,758.6,01.16,0.508
2016-05-26 03:41:00,2007E-3,5C000400,-0724,0833,12261,025.1,045.3,0.260,758.6,01.16,0.508
2016-05-26 03:42:00,1999E-3,5C000400,-0724,0832,12193,025.1,045.4,0.260,758.6,01.16,0.508
2016-05-26 03:43:00,2023E-3,5C000400,-0724,0831,12276,025.1,045.3,0.260,758.6,01.16,0.508
2016-05-26 03:44:00,2006E-3,5C000400,-0724,0831,12153,025.1,045.3,0.260,758.5,01.16,0.508
2016-05-26 03:45:00,2200E-3,5C000400,-0724,0831,12122,025.1,045.4,0.259,758.5,01.16,0.508
2016-05-26 03:46:00,1885E-3,5C000400,-0724,0831,12154,025.1,045.3,0.260,758.5,01.16,0.508
2016-05-26 03:47:00,2096E-3,5C000400,-0724,0832,12223,025.1,045.4,0.259,758.5,01.16,0.508
2016-05-26 03:48:00,2020E-3,5C000400,-0724,0831,12076,025.2,045.4,0.260,758.5,01.16,0.508
2016-05-26 03:49:00,2069E-3,5C000400,-0724,0832,12178,025.1,045.3,0.260,758.5,01.16,0.508
2016-05-26 03:50:00,1933E-3,5C000400,-0724,0832,12100,025.2,045.3,0.260,758.5,01.16,0.508
2016-05-26 03:51:00,1985E-3,5C000400,-0724,0832,12181,025.2,045.3,0.260,758.5,01.16,0.508
2016-05-26 03:52:00,2027E-3,5C000400,-0724,0831,12113,025.2,045.3,0.259,758.5,01.16,0.508
2016-05-26 03:53:00,2084E-3,5C000400,-0724,0832,12123,025.2,045.3,0.260,758.5,01.16,0.508
2016-05-26 03:54:00,2079E-3,5C000400,-0724,0832,12076,025.2,045.3,0.259,758.5,01.16,0.508
2016-05-26 03:55:00,1905E-3,5C000400,-0724,0832,12199,025.2,045.4,0.260,758.5,01.16,0.508
2016-05-26 03:56:00,2118E-3,5C000400,-0724,0831,12158,025.2,045.3,0.260,758.5,01.16,0.508
2016-05-26 03:57:00,1923E-3,5C000400,-0724,0831,12058,025.2,045.3,0.260,758.5,01.16,0.508
2016-05-26 03:58:00,1953E-3,5C000400,-0724,0833,12287,025.2,045.3,0.260,758.5,01.16,0.508
2016-05-26 03:59:00,1914E-3,5C000400,-0724,0832,12179,025.2,045.3,0.259,758.5,01.16,0.508
2016-05-26 04:00:00,2095E-3,5C000400,-0724,0832,12332,025.2,045.4,0.260,758.5,01.16,0.508
2016-05-26 04:01:00,2167E-3,5C000400,-0724,0832,12097,025.2,045.3,0.260,758.5,01.16,0.508
2016-05-26 04:02:00,1876E-3,5C000400,-0724,0832,12227,025.2,045.4,0.260,758.5,01.16,0.508
2016-05-26 04:03:00,1929E-3,5C000400,-0724,0832,12175,025.2,045.4,0.260,758.5,01.16,0.508
2016-05-26 04:04:00,2155E-3,5C000400,-0724,0832,12220,025.2,045.3,0.260,758.5,01.16,0.508
2016-05-26 04:05:00,2134E-3,5C000400,-0724,0832,12238,025.3,045.3,0.260,758.5,01.16,0.508
2016-05-26 04:06:00,2070E-3,5C000400,-0724,0831,12061,025.3,045.4,0.259,758.5,01.16,0.508
2016-05-26 04:07:00,2132E-3,5C000400,-0724,0832,12149,025.3,045.3,0.260,758.6,01.16,0.508
2016-05-26 04:08:00,1974E-3,5C000400,-0724,0831,12194,025.3,045.3,0.260,758.6,01.16,0.508
2016-05-26 04:09:00,1990E-3,5C000400,-0724,0832,12244,025.3,045.3,0.259,758.5,01.16,0.508
2016-05-26 04:10:00,2061E-3,5C000400,-0724,0832,12121,025.3,045.3,0.260,758.6,01.16,0.508
2016-05-26 04:11:00,2055E-3,5C000400,-0724,0832,11911,025.3,045.3,0.259,758.6,01.16,0.508
2016-05-26 04:12:00,2155E-3,5C000400,-0724,0832,12184,025.3,045.4,0.260,758.6,01.16,0.508
2016-05-26 04:13:00,1916E-3,5C000400,-0724,0832,12107,025.3,045.3,0.260,758.6,01.16,0.508
2016-05-26 04:14:00,1934E-3,5C000400,-0724,0832,12210,025.3,045.3,0.260,758.6,01.16,0.508
2016-05-26 04:15:00,1951E-3,5C000400,-0724,0832,12108,025.3,045.3,0.260,758.6,01.16,0.508
2016-05-26 04:16:00,1965E-3,5C000400,-0724,0832,12248,025.3,045.3,0.259,758.6,01.16,0.508
2016-05-26 04:17:00,1939E-3,5C000400,-0724,0832,12239,025.3,045.3,0.260,758.6,01.16,0.508
2016-05-26 04:18:00,2082E-3,5C000400,-0724,0832,12292,025.3,045.4,0.259,758.6,01.16,0.508
2016-05-26 04:19:00,1993E-3,5C000400,-0724,0831,12289,025.3,045.3,0.260,758.6,01.16,0.508
2016-05-26 04:20:00,1830E-3,5C000400,-0724,0831,12151,025.3,045.3,0.260,758.6,01.16,0.508